******** Week 198 almanac for PRN-01 ******** ID: 01 Health: 000 Eccentricity: 0.1225519180E-001 Time of Applicability(s): 405504.0000 Orbital Inclination(rad): 0.9891803205 Rate of Right Ascen(r/s): -0.7668890869E-008 SQRT(A) (m 1/2): 5153.612305 Right Ascen at Week(rad): -0.1762785108E+001 Argument of Perigee(rad): 0.937183989 Mean Anom(rad): -0.3104743784E+001 Af0(s): 0.2193450928E-003 Af1(s/s): -0.3637978807E-011 week: 198 ******** Week 198 almanac for PRN-02 ******** ID: 02 Health: 000 Eccentricity: 0.2008199692E-001 Time of Applicability(s): 405504.0000 Orbital Inclination(rad): 0.9669256149 Rate of Right Ascen(r/s): -0.7828897534E-008 SQRT(A) (m 1/2): 5153.644043 Right Ascen at Week(rad): -0.1859176850E+001 Argument of Perigee(rad): -1.334942287 Mean Anom(rad): 0.2196220442E+001 Af0(s): -0.6246566772E-003 Af1(s/s): 0.3637978807E-011 week: 198 ******** Week 198 almanac for PRN-03 ******** ID: 03 Health: 000 Eccentricity: 0.4442214966E-002 Time of Applicability(s): 405504.0000 Orbital Inclination(rad): 0.9772859773 Rate of Right Ascen(r/s): -0.8000333246E-008 SQRT(A) (m 1/2): 5153.680664 Right Ascen at Week(rad): -0.7307313725E+000 Argument of Perigee(rad): 1.024111190 Mean Anom(rad): 0.2031454952E+001 Af0(s): -0.3690719604E-003 Af1(s/s): 0.3637978807E-011 week: 198 ******** Week 198 almanac for PRN-04 ******** ID: 04 Health: 000 Eccentricity: 0.2296924591E-002 Time of Applicability(s): 405504.0000 Orbital Inclination(rad): 0.9626412545 Rate of Right Ascen(r/s): -0.7874613724E-008 SQRT(A) (m 1/2): 5153.667480 Right Ascen at Week(rad): 0.3502273631E+000 Argument of Perigee(rad): -3.065684948 Mean Anom(rad): -0.1292363459E+001 Af0(s): -0.4100799561E-004 Af1(s/s): 0.7275957614E-011 week: 198 ******** Week 198 almanac for PRN-05 ******** ID: 05 Health: 000 Eccentricity: 0.5783557892E-002 Time of Applicability(s): 405504.0000 Orbital Inclination(rad): 0.9642890854 Rate of Right Ascen(r/s): -0.8148910863E-008 SQRT(A) (m 1/2): 5153.546875 Right Ascen at Week(rad): -0.7757122881E+000 Argument of Perigee(rad): 1.134540205 Mean Anom(rad): -0.5358600109E+000 Af0(s): -0.1134872437E-003 Af1(s/s): 0.0000000000E+000 week: 198 ******** Week 198 almanac for PRN-06 ******** ID: 06 Health: 000 Eccentricity: 0.2883911133E-002 Time of Applicability(s): 405504.0000 Orbital Inclination(rad): 0.9884432907 Rate of Right Ascen(r/s): -0.7634603726E-008 SQRT(A) (m 1/2): 5153.559570 Right Ascen at Week(rad): -0.1771089801E+001 Argument of Perigee(rad): -0.863625191 Mean Anom(rad): -0.2844417207E+001 Af0(s): 0.5645751953E-003 Af1(s/s): 0.3637978807E-011 week: 198 ******** Week 198 almanac for PRN-07 ******** ID: 07 Health: 000 Eccentricity: 0.1665115356E-001 Time of Applicability(s): 405504.0000 Orbital Inclination(rad): 0.9501596842 Rate of Right Ascen(r/s): -0.7897471819E-008 SQRT(A) (m 1/2): 5153.546875 Right Ascen at Week(rad): 0.1366097526E+001 Argument of Perigee(rad): -2.228753494 Mean Anom(rad): 0.2578469655E+001 Af0(s): 0.2517700195E-003 Af1(s/s): -0.7275957614E-011 week: 198 ******** Week 198 almanac for PRN-08 ******** ID: 08 Health: 000 Eccentricity: 0.8226394653E-002 Time of Applicability(s): 405504.0000 Orbital Inclination(rad): 0.9606698495 Rate of Right Ascen(r/s): -0.8011762293E-008 SQRT(A) (m 1/2): 5153.598633 Right Ascen at Week(rad): -0.2851024635E+001 Argument of Perigee(rad): 0.199594270 Mean Anom(rad): -0.8600119477E+000 Af0(s): -0.1058578491E-003 Af1(s/s): 0.0000000000E+000 week: 198 ******** Week 198 almanac for PRN-09 ******** ID: 09 Health: 000 Eccentricity: 0.2552986145E-002 Time of Applicability(s): 405504.0000 Orbital Inclination(rad): 0.9558701674 Rate of Right Ascen(r/s): -0.7977475151E-008 SQRT(A) (m 1/2): 5153.631348 Right Ascen at Week(rad): 0.2945239368E+000 Argument of Perigee(rad): 1.965434231 Mean Anom(rad): -0.5401110401E+000 Af0(s): -0.2298355103E-003 Af1(s/s): 0.7275957614E-011 week: 198 ******** Week 198 almanac for PRN-10 ******** ID: 10 Health: 000 Eccentricity: 0.8426189423E-002 Time of Applicability(s): 405504.0000 Orbital Inclination(rad): 0.9770462928 Rate of Right Ascen(r/s): -0.8000333246E-008 SQRT(A) (m 1/2): 5153.633301 Right Ascen at Week(rad): -0.7334098467E+000 Argument of Perigee(rad): -2.453396291 Mean Anom(rad): 0.1102368553E+001 Af0(s): -0.2193450928E-004 Af1(s/s): 0.0000000000E+000 week: 198 ******** Week 198 almanac for PRN-11 ******** ID: 11 Health: 000 Eccentricity: 0.7810592651E-003 Time of Applicability(s): 405504.0000 Orbital Inclination(rad): 0.9645167857 Rate of Right Ascen(r/s): -0.7886042771E-008 SQRT(A) (m 1/2): 5153.651367 Right Ascen at Week(rad): -0.1727010698E+001 Argument of Perigee(rad): -2.693500237 Mean Anom(rad): -0.1622240859E+001 Af0(s): -0.8773803711E-004 Af1(s/s): -0.1091393642E-010 week: 198 ******** Week 198 almanac for PRN-12 ******** ID: 12 Health: 000 Eccentricity: 0.8879661560E-002 Time of Applicability(s): 405504.0000 Orbital Inclination(rad): 0.9664881907 Rate of Right Ascen(r/s): -0.8068907531E-008 SQRT(A) (m 1/2): 5153.614746 Right Ascen at Week(rad): 0.2480790357E+001 Argument of Perigee(rad): 1.330095042 Mean Anom(rad): 0.1786110904E+001 Af0(s): -0.3328323364E-003 Af1(s/s): -0.3637978807E-011 week: 198 ******** Week 198 almanac for PRN-13 ******** ID: 13 Health: 000 Eccentricity: 0.6752967834E-002 Time of Applicability(s): 405504.0000 Orbital Inclination(rad): 0.9697299235 Rate of Right Ascen(r/s): -0.7794610391E-008 SQRT(A) (m 1/2): 5153.621582 Right Ascen at Week(rad): 0.4528145754E+000 Argument of Perigee(rad): 0.942032357 Mean Anom(rad): -0.1347232484E+001 Af0(s): 0.4663467407E-003 Af1(s/s): 0.7275957614E-011 week: 198 ******** Week 198 almanac for PRN-14 ******** ID: 14 Health: 000 Eccentricity: 0.2598285675E-002 Time of Applicability(s): 405504.0000 Orbital Inclination(rad): 0.9498181338 Rate of Right Ascen(r/s): -0.8228914196E-008 SQRT(A) (m 1/2): 5153.604004 Right Ascen at Week(rad): 0.2444034365E+001 Argument of Perigee(rad): -3.081043106 Mean Anom(rad): 0.1835611370E+001 Af0(s): -0.4100799561E-004 Af1(s/s): 0.7275957614E-011 week: 198 ******** Week 198 almanac for PRN-15 ******** ID: 15 Health: 000 Eccentricity: 0.1473331451E-001 Time of Applicability(s): 405504.0000 Orbital Inclination(rad): 0.9320754889 Rate of Right Ascen(r/s): -0.8286059433E-008 SQRT(A) (m 1/2): 5153.608887 Right Ascen at Week(rad): 0.1793795039E+000 Argument of Perigee(rad): 1.175883909 Mean Anom(rad): -0.1848700016E+001 Af0(s): 0.7629394531E-005 Af1(s/s): 0.3637978807E-011 week: 198 ******** Week 198 almanac for PRN-16 ******** ID: 16 Health: 000 Eccentricity: 0.1334762573E-001 Time of Applicability(s): 405504.0000 Orbital Inclination(rad): 0.9662604904 Rate of Right Ascen(r/s): -0.8068907531E-008 SQRT(A) (m 1/2): 5153.721191 Right Ascen at Week(rad): 0.2499153935E+001 Argument of Perigee(rad): 0.757838191 Mean Anom(rad): -0.4448394482E-001 Af0(s): -0.5226135254E-003 Af1(s/s): 0.0000000000E+000 week: 198 ******** Week 198 almanac for PRN-17 ******** ID: 17 Health: 000 Eccentricity: 0.1374006271E-001 Time of Applicability(s): 405504.0000 Orbital Inclination(rad): 0.9761414838 Rate of Right Ascen(r/s): -0.7806039439E-008 SQRT(A) (m 1/2): 5153.658203 Right Ascen at Week(rad): -0.2763914300E+001 Argument of Perigee(rad): -1.426278559 Mean Anom(rad): -0.9044314773E+000 Af0(s): 0.6961822510E-003 Af1(s/s): 0.3637978807E-011 week: 198 ******** Week 198 almanac for PRN-18 ******** ID: 18 Health: 000 Eccentricity: 0.2963542938E-002 Time of Applicability(s): 405504.0000 Orbital Inclination(rad): 0.9730555459 Rate of Right Ascen(r/s): -0.7806039439E-008 SQRT(A) (m 1/2): 5153.654297 Right Ascen at Week(rad): -0.1760028736E+001 Argument of Perigee(rad): -3.104584618 Mean Anom(rad): -0.2985322480E+001 Af0(s): -0.1144409180E-003 Af1(s/s): -0.1455191523E-010 week: 198 ******** Week 198 almanac for PRN-19 ******** ID: 19 Health: 000 Eccentricity: 0.9055614471E-002 Time of Applicability(s): 405504.0000 Orbital Inclination(rad): 0.9751168326 Rate of Right Ascen(r/s): -0.7817468486E-008 SQRT(A) (m 1/2): 5153.556641 Right Ascen at Week(rad): -0.2719303023E+001 Argument of Perigee(rad): 2.234132912 Mean Anom(rad): 0.1221316105E+001 Af0(s): 0.2689361572E-003 Af1(s/s): 0.3637978807E-011 week: 198 ******** Week 198 almanac for PRN-20 ******** ID: 20 Health: 000 Eccentricity: 0.4528999329E-002 Time of Applicability(s): 405504.0000 Orbital Inclination(rad): 0.9466782669 Rate of Right Ascen(r/s): -0.8308917528E-008 SQRT(A) (m 1/2): 5153.676270 Right Ascen at Week(rad): -0.8960301611E+000 Argument of Perigee(rad): -2.936721954 Mean Anom(rad): -0.2186327090E+001 Af0(s): 0.4549026489E-003 Af1(s/s): -0.3637978807E-011 week: 198 ******** Week 198 almanac for PRN-21 ******** ID: 21 Health: 000 Eccentricity: 0.2482795715E-001 Time of Applicability(s): 405504.0000 Orbital Inclination(rad): 0.9612510844 Rate of Right Ascen(r/s): -0.7817468486E-008 SQRT(A) (m 1/2): 5153.613770 Right Ascen at Week(rad): -0.1863120409E+001 Argument of Perigee(rad): -0.828909888 Mean Anom(rad): -0.9225407646E+000 Af0(s): 0.1535415649E-003 Af1(s/s): 0.0000000000E+000 week: 198 ******** Week 198 almanac for PRN-22 ******** ID: 22 Health: 063 Eccentricity: 0.1381587982E-001 Time of Applicability(s): 405504.0000 Orbital Inclination(rad): 0.9625693491 Rate of Right Ascen(r/s): -0.7863184676E-008 SQRT(A) (m 1/2): 5153.541504 Right Ascen at Week(rad): 0.3986852020E+000 Argument of Perigee(rad): -1.831704513 Mean Anom(rad): -0.1140640176E+001 Af0(s): 0.4138946533E-003 Af1(s/s): 0.7275957614E-011 week: 198 ******** Week 198 almanac for PRN-23 ******** ID: 23 Health: 000 Eccentricity: 0.2978801727E-002 Time of Applicability(s): 405504.0000 Orbital Inclination(rad): 0.9721447448 Rate of Right Ascen(r/s): -0.8046049436E-008 SQRT(A) (m 1/2): 5153.593262 Right Ascen at Week(rad): -0.7600107065E+000 Argument of Perigee(rad): -3.119012876 Mean Anom(rad): 0.2288728173E+001 Af0(s): 0.3814697266E-005 Af1(s/s): 0.0000000000E+000 week: 198 ******** Week 198 almanac for PRN-24 ******** ID: 24 Health: 000 Eccentricity: 0.1368761063E-001 Time of Applicability(s): 405504.0000 Orbital Inclination(rad): 0.9337652646 Rate of Right Ascen(r/s): -0.8046049436E-008 SQRT(A) (m 1/2): 5153.608887 Right Ascen at Week(rad): 0.1277461075E+001 Argument of Perigee(rad): 0.881997383 Mean Anom(rad): -0.2824699787E+001 Af0(s): -0.4673004150E-004 Af1(s/s): -0.1818989404E-010 week: 198 ******** Week 198 almanac for PRN-25 ******** ID: 25 Health: 000 Eccentricity: 0.1116228104E-001 Time of Applicability(s): 405504.0000 Orbital Inclination(rad): 0.9540485652 Rate of Right Ascen(r/s): -0.8183198006E-008 SQRT(A) (m 1/2): 5153.497070 Right Ascen at Week(rad): 0.2399891596E+001 Argument of Perigee(rad): 1.020150404 Mean Anom(rad): 0.1715991953E+001 Af0(s): 0.4148483276E-003 Af1(s/s): 0.3637978807E-011 week: 198 ******** Week 198 almanac for PRN-26 ******** ID: 26 Health: 000 Eccentricity: 0.7806301117E-002 Time of Applicability(s): 405504.0000 Orbital Inclination(rad): 0.9348019000 Rate of Right Ascen(r/s): -0.8377491813E-008 SQRT(A) (m 1/2): 5153.566406 Right Ascen at Week(rad): 0.2346476782E+001 Argument of Perigee(rad): 0.440433373 Mean Anom(rad): 0.9076091694E+000 Af0(s): 0.2412796021E-003 Af1(s/s): 0.0000000000E+000 week: 198 ******** Week 198 almanac for PRN-27 ******** ID: 27 Health: 000 Eccentricity: 0.1120424271E-001 Time of Applicability(s): 405504.0000 Orbital Inclination(rad): 0.9695142075 Rate of Right Ascen(r/s): -0.7920329914E-008 SQRT(A) (m 1/2): 5153.614258 Right Ascen at Week(rad): -0.2828718621E+001 Argument of Perigee(rad): 0.691249718 Mean Anom(rad): -0.8604358896E+000 Af0(s): 0.1173019409E-003 Af1(s/s): -0.1091393642E-010 week: 198 ******** Week 198 almanac for PRN-29 ******** ID: 29 Health: 000 Eccentricity: 0.2141952515E-002 Time of Applicability(s): 405504.0000 Orbital Inclination(rad): 0.9783345970 Rate of Right Ascen(r/s): -0.7794610391E-008 SQRT(A) (m 1/2): 5153.544434 Right Ascen at Week(rad): -0.2750118210E+001 Argument of Perigee(rad): 2.417246251 Mean Anom(rad): -0.8742844105E+000 Af0(s): -0.5826950073E-003 Af1(s/s): -0.3637978807E-011 week: 198 ******** Week 198 almanac for PRN-30 ******** ID: 30 Health: 000 Eccentricity: 0.6067752838E-002 Time of Applicability(s): 405504.0000 Orbital Inclination(rad): 0.9352872611 Rate of Right Ascen(r/s): -0.8046049436E-008 SQRT(A) (m 1/2): 5153.593750 Right Ascen at Week(rad): 0.1374031083E+001 Argument of Perigee(rad): -2.661080662 Mean Anom(rad): 0.2440112902E+001 Af0(s): -0.5321502686E-003 Af1(s/s): 0.0000000000E+000 week: 198 ******** Week 198 almanac for PRN-31 ******** ID: 31 Health: 000 Eccentricity: 0.1078081131E-001 Time of Applicability(s): 405504.0000 Orbital Inclination(rad): 0.9542702734 Rate of Right Ascen(r/s): -0.7840326581E-008 SQRT(A) (m 1/2): 5153.597656 Right Ascen at Week(rad): 0.1385577509E+001 Argument of Perigee(rad): 0.496713166 Mean Anom(rad): 0.1991900269E+001 Af0(s): -0.2079010010E-003 Af1(s/s): 0.0000000000E+000 week: 198 ******** Week 198 almanac for PRN-32 ******** ID: 32 Health: 000 Eccentricity: 0.6529331207E-002 Time of Applicability(s): 405504.0000 Orbital Inclination(rad): 0.9595493245 Rate of Right Ascen(r/s): -0.7931758961E-008 SQRT(A) (m 1/2): 5153.649902 Right Ascen at Week(rad): 0.3071762822E+000 Argument of Perigee(rad): -2.269923426 Mean Anom(rad): -0.1739424108E+000 Af0(s): -0.3767013550E-003 Af1(s/s): -0.1091393642E-010 week: 198